Location: Newark
(54.2500°N, 9.1833°E)
Time: 21:30:54
(UTC+00:00)

Vanguard 3 - All Passes

Search period start: 07 December 2019 00:00
Search period end: 17 December 2019 00:00
Orbit: 508 x 3263 km, 33.3° (Epoch: 06 December)

Date Brightness Start Highest point End Pass type
(mag) Time Alt. Az. Time Alt. Az. Time Alt. Az.
07 Dec - 07:45:48 10° S 07:52:58 20° SSE 08:02:36 10° ESE daylight
07 Dec - 09:53:59 10° SW 10:04:25 32° S 10:19:05 10° ESE daylight
07 Dec - 12:05:06 10° WSW 12:17:19 30° SSW 12:32:39 10° SE daylight
07 Dec - 14:19:44 10° WSW 14:30:06 19° SW 14:41:21 10° S daylight
08 Dec - 06:36:21 10° SSE 06:39:31 12° SE 06:43:10 10° ESE visible
08 Dec - 08:41:18 10° SSW 08:49:55 27° SSE 09:02:14 10° ESE daylight
08 Dec - 10:51:06 10° WSW 11:02:08 32° S 11:17:12 10° SE daylight
08 Dec - 13:03:37 10° WSW 13:15:05 24° SSW 13:28:38 10° SSE daylight
09 Dec - 07:29:31 10° S 07:35:59 20° SSE 07:44:48 10° ESE daylight
09 Dec - 09:37:47 10° SW 09:47:18 30° S 10:00:59 10° ESE daylight
09 Dec - 11:48:51 10° WSW 11:59:57 28° SSW 12:14:19 10° SSE daylight
09 Dec - 14:03:58 10° WSW 14:12:35 16° SW 14:22:03 10° S daylight
10 Dec - 06:20:01 10° SSE 06:22:38 11° SE 06:25:36 10° ESE visible
10 Dec - 08:25:08 10° SSW 08:32:57 25° SSE 08:44:14 10° ESE daylight
10 Dec - 10:34:56 10° WSW 10:44:58 29° S 10:58:56 10° SE daylight
10 Dec - 12:47:35 10° WSW 12:57:41 21° SSW 13:09:50 10° SSE daylight
11 Dec - 07:13:22 10° S 07:19:09 19° SSE 07:26:59 10° ESE daylight
11 Dec - 09:21:42 10° SW 09:30:18 28° S 09:42:49 10° SE daylight
11 Dec - 11:32:48 10° WSW 11:42:43 25° SSW 11:55:45 10° SSE daylight
11 Dec - 13:49:01 10° WSW 13:55:10 13° SW 14:01:53 10° SSW daylight
12 Dec - 06:04:01 10° SSE 06:05:52 11° SE 06:07:53 10° SE visible
12 Dec - 08:09:07 10° SSW 08:16:06 24° SSE 08:26:14 10° ESE daylight
12 Dec - 10:18:57 10° WSW 10:27:55 26° S 10:40:31 10° SE daylight
12 Dec - 12:31:55 10° WSW 12:40:24 18° SSW 12:50:39 10° S daylight
13 Dec - 06:57:22 10° SSW 07:02:26 17° SSE 07:09:13 10° ESE daylight
13 Dec - 09:05:46 10° SW 09:13:27 25° S 09:24:35 10° SE daylight
13 Dec - 11:17:00 10° WSW 11:25:37 21° SSW 11:36:57 10° SSE daylight
14 Dec - 07:53:14 10° SSW 07:59:24 22° SSE 08:08:13 10° SE daylight
14 Dec - 10:03:08 10° SW 10:11:01 23° S 10:22:00 10° SE daylight
14 Dec - 12:16:47 10° SW 12:23:15 14° SSW 12:30:53 10° S daylight
15 Dec - 06:41:31 10° S 06:45:50 16° SSE 06:51:28 10° ESE visible
15 Dec - 08:49:59 10° SW 08:56:43 23° S 09:06:19 10° SE daylight
15 Dec - 11:01:30 10° SW 11:08:40 18° SSW 11:17:52 10° SSE daylight
16 Dec - 07:37:29 10° SSW 07:42:49 19° SSE 07:50:13 10° SE daylight
16 Dec - 09:47:33 10° SW 09:54:14 20° S 10:03:19 10° SSE daylight
16 Dec - 12:03:07 10° SW 12:06:15 11° SSW 12:09:39 10° SSW daylight
